Location: Multiple Mirror Telescope
(31.6889°N, 110.8853°W)
Time: 02:24:13
(UTC-07:00)

ACS3 Solar Sail - Visible Passes

Search period start: 12 May 2025 00:00
Search period end: 22 May 2025 00:00
Orbit: 935 x 1009 km, 97.5° (Epoch: 12 May)

Date Brightness Start Highest point End Pass type
(mag) Time Alt. Az. Time Alt. Az. Time Alt. Az.
12 May 4.7 04:42:35 10° ENE 04:44:54 12° E 04:47:13 10° ESE visible
16 May 4.8 04:35:25 10° ENE 04:36:50 11° E 04:38:15 10° ESE visible
17 May 4.4 04:56:34 10° NE 05:00:52 20° E 05:05:10 10° SE visible
21 May 4.4 04:48:25 10° NE 04:52:24 18° E 04:56:23 10° SE visible
